TimeCST,TemperatureF,Dew PointF,Humidity,Sea Level PressureIn,VisibilityMPH,Wind Direction,Wind SpeedMPH,Gust SpeedMPH,PrecipitationIn,Events,Conditions,WindDirDegrees,DateUTC
12:53 AM,33.1,17.1,52,30.34,10.0,SSE,8.1,-,N/A,,Clear,160,2011-11-18 06:53:00
1:53 AM,34.0,18.0,52,30.35,10.0,SSE,8.1,-,N/A,,Clear,160,2011-11-18 07:53:00
2:53 AM,33.1,18.0,54,30.35,10.0,SSE,9.2,-,N/A,,Clear,160,2011-11-18 08:53:00
3:53 AM,33.1,19.0,56,30.36,10.0,South,8.1,-,N/A,,Clear,170,2011-11-18 09:53:00
4:53 AM,33.1,19.0,56,30.35,10.0,SSE,10.4,-,N/A,,Clear,160,2011-11-18 10:53:00
5:53 AM,33.1,19.0,56,30.37,10.0,SSE,9.2,-,N/A,,Clear,160,2011-11-18 11:53:00
6:53 AM,33.1,19.0,56,30.37,10.0,SSE,8.1,-,N/A,,Clear,160,2011-11-18 12:53:00
7:53 AM,37.9,19.9,48,30.36,10.0,SSE,8.1,-,N/A,,Clear,160,2011-11-18 13:53:00
8:53 AM,43.0,19.9,40,30.35,10.0,South,12.7,18.4,N/A,,Clear,170,2011-11-18 14:53:00
9:53 AM,46.4,19.4,34,30.33,10.0,South,15.0,20.7,N/A,,Clear,170,2011-11-18 15:53:00
10:53 AM,48.9,19.0,31,30.32,10.0,South,13.8,18.4,N/A,,Clear,180,2011-11-18 16:53:00
11:53 AM,52.0,17.1,25,30.28,10.0,SW,10.4,19.6,N/A,,Clear,220,2011-11-18 17:53:00
12:53 PM,53.1,12.9,20,30.23,10.0,SSW,11.5,20.7,N/A,,Clear,200,2011-11-18 18:53:00
1:53 PM,54.0,15.1,22,30.20,10.0,South,11.5,17.3,N/A,,Clear,170,2011-11-18 19:53:00
2:53 PM,54.0,16.0,22,30.17,10.0,SSW,8.1,17.3,N/A,,Clear,200,2011-11-18 20:53:00
3:53 PM,53.1,17.1,24,30.15,10.0,South,9.2,-,N/A,,Clear,180,2011-11-18 21:53:00
4:53 PM,48.9,17.1,28,30.14,10.0,South,3.5,-,N/A,,Clear,180,2011-11-18 22:53:00
5:53 PM,46.9,17.1,30,30.13,10.0,SE,4.6,-,N/A,,Clear,140,2011-11-18 23:53:00
6:53 PM,44.1,19.9,38,30.12,10.0,SSE,5.8,-,N/A,,Clear,150,2011-11-19 00:53:00
7:53 PM,46.0,23.0,40,30.12,10.0,South,9.2,-,N/A,,Clear,170,2011-11-19 01:53:00
8:53 PM,48.0,25.0,41,30.10,10.0,South,12.7,-,N/A,,Clear,170,2011-11-19 02:53:00
9:53 PM,48.9,25.0,39,30.11,10.0,South,12.7,19.6,N/A,,Clear,180,2011-11-19 03:53:00
10:53 PM,48.0,27.0,44,30.12,10.0,Variable,5.8,-,N/A,,Clear,0,2011-11-19 04:53:00
11:53 PM,48.9,28.0,44,30.11,10.0,South,10.4,17.3,N/A,,Clear,190,2011-11-19 05:53:00